Location: Zagreb
(45.8000°N, 16.0000°E)
Time: 08:49:22
(UTC+02:00)

Courier 1B - Pass Details

Date: 10 August 2020
Orbit: 962 x 1209 km, 28.3° (Epoch: 27 September)

Event Time Altitude Azimuth Distance (km) Brightness Sun altitude
Rises 20:56:20 0° 235° (SW) 3,919 11.0 -7.8°
Reaches altitude 10° 21:00:09 10° 217° (SW) 2,911 10.1 -8.3°
Maximum altitude 21:04:34 18° 178° (S) 2,338 9.2 -9.0°
Enters shadow 21:08:43 10° 139° (SE) 2,771 9.3 -9.6°
Drops below altitude 10° 21:08:51 10° 138° (SE) 2,799 - -9.6°
Sets 21:12:26 0° 120° (ESE) 3,710 - -10.1°
